Change the Weather History Date:

Tuesday, January 7, 2014

  Actual Average Record
Temperature  
Mean Temperature 34 °F -  
Max Temperature 48 °F 54 °F 82 °F (2006)
Min Temperature 19 °F 35 °F 19 °F (2014)
Degree Days  
Heating Degree Days 32    
Moisture  
Dew Point 11 °F    
Average Humidity 43    
Maximum Humidity 68    
Minimum Humidity 24    
Precipitation  
Precipitation 0.00 in - - ()
Sea Level Pressure  
Sea Level Pressure 30.43 in    
Wind  
Wind Speed 8 mph (South)    
Max Wind Speed 18 mph    
Max Gust Speed 25 mph    
Visibility 10 miles    
Events      
Averages and records for this station are not official NWS values.
T = Trace of Precipitation, MM = Missing Value Source: NWS Daily Summary

Daily Weather History Graph

Daily Weather History Graph

Search for Another Location

Airport or City:

Trip Planner

Search our weather history database for the weather conditions in past years. The results will help you decide how hot, cold, wet, or windy it might be!

Date:

Astronomy

Jan. 07, 2014 Rise Set
Actual Time 7:32 AM CST 5:39 PM CST
Civil Twilight 7:05 AM CST 6:06 PM CST
Nautical Twilight 6:35 AM CST 6:36 PM CST
Astronomical Twilight 6:05 AM CST 7:06 PM CST
Moon 11:46 AM CST (1/7) No Moon Set
Length of Visible Light 11h 00m
Length of Day
10h 06m
Waxing Crescent, 46% of the Moon is Illuminated
Jan 7
Waxing Crescent
Jan 7
First Quarter
Jan 15
Full
Jan 23
Last Quarter
Jan 30
New

Hourly Weather History & Observations

Time (CST) Temp. Windchill Dew Point Humidity Pressure Visibility Wind Dir Wind Speed Gust Speed Precip Events Conditions
12:53 AM 23.0 °F 15.8 °F 9.0 °F 55% 30.57 in 10.0 mi SW 5.8 mph - N/A   Clear
1:53 AM 23.0 °F 15.8 °F 9.0 °F 55% 30.56 in 10.0 mi SW 5.8 mph - N/A   Clear
2:53 AM 21.9 °F - 10.0 °F 60% 30.56 in 10.0 mi Calm Calm - N/A   Clear
3:53 AM 21.9 °F - 10.0 °F 60% 30.56 in 10.0 mi Calm Calm - N/A   Clear
4:53 AM 21.0 °F 13.4 °F 10.0 °F 63% 30.55 in 10.0 mi SW 5.8 mph - N/A   Clear
5:53 AM 21.9 °F - 10.0 °F 60% 30.53 in 10.0 mi Calm Calm - N/A   Clear
6:53 AM 21.0 °F 14.6 °F 10.9 °F 65% 30.53 in 10.0 mi South 4.6 mph - N/A   Clear
7:53 AM 19.9 °F 12.1 °F 10.9 °F 68% 30.53 in 10.0 mi South 5.8 mph - N/A   Clear
8:53 AM 26.1 °F 16.8 °F 14.0 °F 60% 30.53 in 10.0 mi South 9.2 mph - N/A   Clear
9:53 AM 32.0 °F 22.5 °F 14.0 °F 48% 30.53 in 10.0 mi SSW 12.7 mph - N/A   Clear
10:53 AM 37.0 °F 31.0 °F 12.9 °F 37% 30.52 in 10.0 mi SSW 8.1 mph 17.3 mph N/A   Clear
11:53 AM 41.0 °F 34.3 °F 10.9 °F 29% 30.47 in 10.0 mi SSW 11.5 mph 21.9 mph N/A   Clear
12:53 PM 44.1 °F 36.8 °F 12.9 °F 28% 30.41 in 10.0 mi South 16.1 mph - N/A   Clear
1:53 PM 46.9 °F - 12.9 °F 25% 30.36 in 10.0 mi South 17.3 mph 23.0 mph N/A   Clear
2:53 PM 48.0 °F - 12.0 °F 24% 30.33 in 10.0 mi South 16.1 mph 25.3 mph N/A   Clear
3:53 PM 48.0 °F - 12.0 °F 24% 30.32 in 10.0 mi South 15.0 mph 23.0 mph N/A   Clear
4:53 PM 45.0 °F 37.4 °F 12.0 °F 26% 30.31 in 10.0 mi South 18.4 mph - N/A   Clear
5:53 PM 42.1 °F 33.9 °F 10.0 °F 27% 30.31 in 10.0 mi South 17.3 mph - N/A   Clear
6:53 PM 39.9 °F 30.8 °F 10.0 °F 29% 30.31 in 10.0 mi South 18.4 mph - N/A   Clear
7:53 PM 37.9 °F 30.5 °F 10.9 °F 33% 30.31 in 10.0 mi SSE 11.5 mph - N/A   Clear
8:53 PM 36.0 °F 28.0 °F 12.0 °F 37% 30.31 in 10.0 mi SSE 11.5 mph - N/A   Clear
9:53 PM 35.1 °F 27.4 °F 12.0 °F 39% 30.30 in 10.0 mi SSE 10.4 mph - N/A   Clear
10:53 PM 34.0 °F 26.0 °F 12.9 °F 42% 30.29 in 10.0 mi SSE 10.4 mph - N/A   Clear
11:53 PM 39.0 °F 31.8 °F 14.0 °F 36% 30.26 in 10.0 mi South 11.5 mph - N/A   Overcast